Location: Dover
(39.1580°N, 75.5250°W)
Time: 09:59:30
(UTC-04:00)

SeaSat 1 - Visible Passes

Search period start: 01 November 2014 00:00
Search period end: 10 November 2014 23:00
Orbit: 747 x 749 km, 108.0° (Epoch: 01 November)

Date Brightness Start Highest point End Pass type
(mag) Time Alt. Az. Time Alt. Az. Time Alt. Az.
02 Nov 4.9 18:13:32 10° N 18:16:54 19° NW 18:20:15 10° W visible
03 Nov 3.6 17:31:06 10° NNE 17:35:46 44° WNW 17:40:25 10° SW visible
04 Nov 5.0 18:28:18 10° N 18:31:23 17° NW 18:34:28 10° W visible
05 Nov 3.8 17:45:43 10° N 17:50:17 39° WNW 17:54:50 10° SW visible
06 Nov 5.1 18:43:05 10° NNW 18:45:51 15° NW 18:48:38 10° W visible
07 Nov 4.0 18:00:20 10° N 18:04:47 35° WNW 18:09:14 10° WSW visible
08 Nov 2.5 17:18:29 10° NNE 17:23:27 90° WNW 17:28:22 10° SSW visible
08 Nov 5.1 18:57:55 10° NNW 19:00:19 14° NW 19:02:44 10° WNW visible
09 Nov 4.1 18:14:58 10° N 18:19:17 31° NW 18:23:36 10° WSW visible
10 Nov 2.6 17:33:02 10° NNE 17:37:59 80° WNW 17:42:53 10° SSW visible
10 Nov 5.2 19:12:49 10° NNW 19:14:47 12° NW 19:16:44 10° WNW visible
